Temperature
20 20 19 19 19 18 18 18 18 18 17 17 17 17 17 16 16 16 16 16 16 16 16 16 16 16 16 16 15 15 15 15 15 14 14 14 14 14 13 13 13 13 13
20 20 19 19 19 18 18 18 17 17 17 17 17 17 16 16 16 16 16 16 15 15 15 15 15 15 15 15 15 15 15 15 14 14 14 13 13 13 13 13 13 13 12
20 19 19 19 18 18 18 18 17 17 17 17 17 16 16 16 16 16 15 15 15 15 15 15 15 15 15 15 15 14 14 14 14 14 13 13 12 12 12 12 12 12 12
19 19 19 18 18 18 17 17 17 17 17 16 16 16 16 16 15 15 15 15 15 15 15 14 14 14 14 14 14 14 14 14 13 13 13 12 12 12 12 12 12 12 11
19 19 18 18 18 18 17 17 17 17 16 16 16 16 15 15 15 15 15 15 14 14 14 14 14 14 14 14 14 14 14 13 13 13 12 12 12 11 11 11 11 11 11
19 18 18 18 18 17 17 17 16 16 16 16 15 15 15 15 15 15 14 14 14 14 13 13 13 13 13 13 13 13 13 13 12 12 12 12 11 11 11 11 11 11 10
19 18 18 18 17 17 16 16 16 16 15 15 15 15 15 14 14 14 14 14 13 13 13 13 13 13 13 13 13 12 12 12 12 11 11 11 11 11 11 11 10 10 10
18 18 18 17 17 16 16 16 15 15 15 14 14 14 14 14 14 14 14 13 13 13 13 12 12 12 12 12 12 12 12 12 11 11 11 11 11 10 10 10 10 10 10
18 18 17 17 16 16 15 15 15 14 14 14 14 13 13 13 13 13 13 13 13 12 12 12 12 12 12 12 12 11 11 11 11 11 11 10 10 10 10 10 10 10 10
18 17 17 16 16 15 15 15 14 14 14 14 13 13 13 13 13 13 13 12 12 12 12 12 12 12 12 11 11 11 11 10 10 10 10 10 10 10 10 10 10 10 10
17 17 16 16 16 15 15 14 14 14 14 13 13 13 13 12 12 12 12 12 12 11 11 11 11 11 11 11 11 11 10 10 10 10 10 10 9 9 9 9 9 9 9
17 16 16 16 15 15 14 14 14 13 13 13 13 12 12 12 12 12 12 12 11 11 11 10 10 10 10 10 10 10 10 10 10 10 10 9 9 9 9 8 8 8 8
16 16 16 15 15 15 14 14 13 13 13 13 12 12 12 12 12 11 11 11 11 11 10 10 10 10 10 10 10 10 9 9 9 10 9 9 9 8 8 8 8 8 8
16 15 15 15 14 14 14 13 13 13 13 12 12 12 12 11 11 11 11 11 11 10 10 10 10 10 9 9 9 9 9 9 9 9 9 9 9 8 8 8 9 8 8
15 15 14 14 13 13 13 13 13 13 12 12 12 12 12 11 11 11 11 10 10 10 10 9 9 9 9 9 9 9 9 9 9 9 9 9 9 8 8 8 8 8 8
14 14 14 13 13 13 13 13 12 12 12 12 12 11 11 11 11 10 10 10 10 10 10 10 9 9 9 9 9 9 8 8 8 8 8 8 8 8 8 8 8 8 8
14 14 13 13 13 13 13 12 12 12 11 11 11 11 11 11 10 10 10 10 10 9 10 10 9 9 9 9 9 9 8 8 8 8 8 8 8 8 8 8 8 8 8
14 14 13 13 13 13 12 12 12 11 11 11 11 11 10 10 10 10 9 9 9 9 10 9 9 9 9 9 8 8 8 8 8 8 8 8 8 8 8 8 8 7 8
13 13 13 13 13 12 12 12 12 11 11 11 11 10 10 10 10 9 9 9 10 9 9 9 9 9 8 8 8 8 8 8 7 7 7 7 7 7 7 8 8 7 7
13 13 13 13 12 12 12 12 12 11 11 10 10 10 10 10 9 9 9 9 9 9 9 9 9 8 8 8 8 8 8 7 7 7 7 7 7 7 7 7 7 7 7
13 12 12 12 12 12 12 12 11 11 11 10 10 10 10 10 10 9 9 9 9 9 8 8 8 8 8 8 8 7 7 7 7 7 7 7 7 7 7 7 7 7 7
12 12 12 12 12 11 11 11 11 11 11 10 10 10 9 9 9 9 9 9 9 8 8 8 8 8 8 7 7 7 7 7 7 7 7 6 6 6 7 7 7 7 7
12 12 12 11 11 11 11 11 11 11 10 10 10 10 9 9 9 9 9 8 8 8 8 8 8 8 7 7 7 7 7 7 6 6 6 6 6 6 6 6 6 6 6
12 12 11 11 11 11 11 11 11 11 10 10 10 10 9 9 9 9 9 8 8 8 8 7 7 7 7 7 7 7 7 6 6 6 6 6 6 6 6 6 6 6 6
12 12 11 11 11 11 11 11 11 10 10 10 10 10 9 9 9 9 8 8 8 8 7 7 7 7 7 6 6 6 6 6 6 6 6 5 6 5 6 6 6 6 6
11 11 11 11 11 11 11 11 10 10 10 10 10 9 9 9 9 9 8 8 8 8 7 7 7 7 6 6 6 6 6 6 6 6 5 5 5 5 5 6 5 6 5
Wind_Speed
5 4 3 3 3 2 1 1 1 1 2 2 2 3 3 2 2 2 2 2 2 2 1 1 1 2 1 1 1 1 1 1 2 1 1 3 4 4 5 5 6 6 9
6 6 5 4 3 3 2 1 1 2 2 2 2 2 2 3 3 2 2 3 3 3 3 3 3 2 2 2 1 1 0 1 1 1 1 2 4 3 4 3 5 7 9
6 6 6 5 4 3 3 2 2 2 2 2 3 3 3 3 3 4 4 5 5 5 4 4 4 4 3 3 2 2 1 1 1 2 2 3 3 3 4 5 6 5 7
7 6 6 5 4 3 3 3 3 3 3 3 4 4 4 4 5 5 5 6 6 6 6 6 6 6 5 4 3 4 3 3 3 3 4 3 3 3 2 3 4 4 5
7 6 6 5 5 4 4 4 4 4 4 4 5 5 5 5 5 5 5 6 7 7 8 8 9 10 11 9 6 5 4 3 4 4 4 4 3 2 2 2 4 4 4
7 7 6 5 5 5 5 5 5 5 5 5 6 6 7 7 8 9 6 7 7 8 8 8 8 10 11 12 13 12 10 6 5 4 4 4 4 3 3 2 3 2 2
7 7 7 6 6 5 6 5 5 5 6 6 6 7 8 9 9 9 8 7 8 8 8 7 7 8 8 8 9 9 11 11 8 5 6 5 4 3 2 3 2 3 3
8 7 6 6 6 6 6 6 5 5 6 6 7 7 8 8 7 6 6 8 9 8 8 8 8 8 8 7 8 10 10 10 9 7 7 6 6 4 3 3 3 3 3
8 7 7 7 6 6 6 6 6 6 6 6 6 7 7 7 7 5 3 7 8 9 8 8 8 8 8 7 8 9 9 9 12 13 11 9 9 7 4 2 2 2 2
7 7 7 7 7 7 7 7 6 6 6 6 7 6 6 6 6 6 4 5 7 7 7 9 11 9 9 8 7 8 8 7 7 8 8 7 7 7 5 4 3 2 2
7 7 7 7 7 7 7 7 6 6 7 7 7 6 6 6 6 6 6 4 5 6 6 7 7 9 10 9 7 7 6 3 5 6 6 6 6 5 6 7 7 5 4
7 8 8 7 7 7 8 7 7 7 7 7 6 6 5 5 6 6 8 7 5 6 6 7 7 8 9 9 8 6 3 2 4 5 5 5 5 5 5 7 7 8 7
8 8 8 8 7 7 8 7 6 6 5 5 5 5 5 5 6 7 8 8 7 6 7 8 7 5 5 7 7 3 2 3 4 4 5 5 5 5 4 4 4 4 4
9 8 8 8 8 7 6 5 5 5 5 5 5 5 5 5 4 5 6 6 7 6 6 7 6 4 4 5 4 3 4 5 4 4 4 4 3 3 3 3 3 2 2
8 8 8 7 7 7 6 4 3 3 2 3 4 4 4 5 4 4 3 4 4 5 4 4 4 4 4 4 4 4 3 3 3 3 3 3 3 3 3 3 3 3 3
8 7 6 6 6 6 7 6 10 8 8 8 7 3 5 7 8 7 7 7 5 1 2 4 3 3 3 3 3 3 3 3 3 3 3 3 3 3 3 3 3 3 3
8 7 6 6 7 7 7 7 6 5 8 8 7 6 7 9 8 7 6 5 3 2 2 3 3 3 2 2 2 2 3 3 2 2 2 2 2 2 2 2 3 3 3
8 7 6 6 6 6 6 7 6 7 6 5 5 7 8 8 7 6 6 6 4 3 2 2 3 2 2 2 2 2 2 2 2 2 2 2 2 2 3 3 3 4 4
7 6 6 6 6 6 6 6 6 6 6 6 6 6 6 7 7 5 5 3 3 3 2 2 2 2 2 2 1 1 1 1 2 2 2 2 2 2 3 3 3 1 4
5 6 6 6 6 7 6 6 6 7 6 6 6 6 7 6 5 5 4 2 2 2 2 2 2 1 1 1 1 0 0 1 1 1 2 2 2 3 3 4 4 4 4
6 7 7 6 6 6 6 6 6 6 6 6 5 5 5 5 5 5 4 3 2 2 2 1 1 1 1 0 1 1 1 1 1 2 2 2 3 3 3 4 4 4 5
6 6 6 6 6 6 6 6 6 6 7 7 6 7 6 4 4 4 4 4 3 2 2 1 1 1 1 0 1 1 1 1 1 1 2 2 3 3 4 4 4 5 5
6 6 6 6 6 6 6 6 6 6 6 6 6 6 6 5 4 4 4 3 3 2 2 2 1 1 1 0 1 1 1 1 2 2 3 3 3 3 4 4 5 6 6
6 7 7 7 7 7 6 6 6 6 6 6 6 6 6 5 4 4 4 3 3 3 2 2 1 1 1 0 1 1 2 3 3 3 4 4 4 4 4 4 5 6 6
6 6 7 7 7 6 6 6 6 6 6 6 6 6 6 5 5 5 4 4 4 3 2 2 1 1 1 0 1 3 5 4 4 5 4 5 5 5 5 6 5 6 7
6 6 6 6 6 6 6 6 6 6 6 5 5 5 5 5 4 4 4 4 3 3 2 2 2 2 2 1 2 4 4 3 4 6 6 6 5 5 6 6 7 7 7
Wind_Direction
154 152 151 149 149 150 140 95 51 22 13 3 2 3 3 9 14 24 28 46 46 35 5 351 342 333 316 283 262 255 252 238 227 275 39 73 69 68 74 77 83 81 76
150 145 142 135 131 124 108 77 59 48 34 27 21 21 22 28 33 41 42 48 52 47 31 20 15 19 9 339 350 359 63 211 191 151 95 76 72 78 78 75 78 78 77
144 140 137 133 126 116 102 83 67 58 45 42 44 39 37 37 42 52 54 55 54 51 44 38 32 30 22 24 26 37 42 80 98 116 102 74 69 69 78 78 75 71 79
139 137 133 127 120 116 106 96 84 75 66 57 55 53 52 54 58 61 62 61 58 53 48 45 42 42 37 40 49 47 53 76 94 104 101 88 82 78 82 83 81 68 62
138 135 131 127 123 118 110 103 95 88 82 73 70 68 65 64 57 60 71 69 65 61 59 58 57 55 48 44 49 50 55 72 94 101 100 96 86 80 74 81 88 87 71
136 132 130 129 126 121 118 113 106 94 85 81 76 74 70 65 53 45 55 73 69 68 66 65 69 64 66 64 60 55 49 57 66 81 90 88 77 76 79 95 98 94 76
138 137 138 138 132 129 126 118 109 102 95 88 84 81 78 67 57 57 55 76 75 69 67 64 63 63 60 70 77 79 64 52 46 56 80 80 86 76 79 92 71 53 61
142 140 140 141 134 128 123 115 107 100 97 92 86 85 85 73 56 58 70 84 79 73 68 69 71 65 57 56 74 72 70 61 55 61 70 70 72 66 64 72 88 99 98
147 146 145 143 138 136 129 120 114 109 103 97 92 88 87 78 50 36 42 95 87 79 71 64 66 72 43 33 76 80 77 76 77 75 71 75 72 61 38 66 81 90 95
148 147 143 142 142 138 131 127 121 116 111 105 94 90 88 83 55 28 1 99 96 94 88 82 67 60 44 31 71 80 81 76 77 84 85 87 84 77 57 31 22 31 50
144 141 141 140 137 131 126 125 125 122 114 106 100 93 86 80 79 46 19 79 98 98 93 86 75 57 53 43 50 71 68 70 84 84 82 76 72 67 58 48 31 22 21
141 140 138 135 133 130 128 127 127 125 121 117 111 106 99 92 77 74 57 49 42 94 91 90 88 78 69 58 62 49 6 0 81 80 76 70 64 60 59 55 49 46 41
143 140 136 132 128 133 136 136 137 139 136 135 132 124 114 109 100 91 84 70 52 82 89 81 86 103 118 95 73 23 2 59 64 67 65 63 62 58 61 80 83 80 70
143 140 139 137 134 132 137 139 143 145 146 146 141 134 128 127 126 126 123 118 121 115 113 117 125 99 95 90 108 81 62 52 45 55 57 61 65 69 52 36 35 40 55
146 145 146 145 139 134 125 100 126 112 109 144 144 145 145 140 109 70 105 122 121 116 134 139 131 120 108 99 91 76 69 67 57 51 49 50 47 45 42 33 13 2 14
151 154 154 148 143 142 132 105 52 59 64 56 49 70 99 98 113 100 85 79 80 122 180 129 119 108 96 89 87 83 73 58 48 47 44 36 33 30 31 23 12 4 6
155 159 161 156 155 154 151 148 137 94 71 67 68 73 97 119 122 123 124 126 140 209 169 120 113 103 89 81 78 75 71 61 34 36 37 30 24 21 21 13 3 358 1
157 158 166 163 159 160 159 156 153 153 149 129 100 103 118 127 135 146 159 164 157 181 150 123 121 115 105 88 77 71 70 70 49 30 31 23 10 3 1 357 3 354 345
161 162 163 155 155 157 157 155 153 157 153 144 137 128 135 141 142 154 184 198 156 150 144 135 126 124 116 104 81 57 48 50 28 357 25 8 353 344 344 340 346 4 314
157 147 157 157 156 156 160 162 160 159 157 155 154 148 152 162 157 158 181 197 176 146 137 132 126 116 119 115 113 33 33 63 19 338 10 348 337 331 328 323 327 327 324
155 153 158 164 164 163 165 166 162 162 160 158 156 143 151 169 165 160 167 171 173 154 153 156 148 158 155 190 246 253 284 331 346 340 343 331 329 324 316 316 316 315 319
158 162 168 166 161 164 163 164 162 163 162 158 150 147 161 183 166 162 163 160 157 148 141 167 178 150 134 200 265 270 267 289 318 317 318 314 310 308 309 313 318 320 320
161 160 163 161 157 154 164 163 162 164 164 162 163 163 168 178 169 157 154 150 146 141 144 160 172 126 99 43 323 305 303 320 322 321 306 298 303 310 311 314 312 312 319
160 160 162 159 161 165 165 166 167 168 167 167 170 168 168 170 164 158 160 152 148 149 164 175 176 126 119 215 276 314 6 350 323 306 303 302 301 304 307 306 304 312 313
160 160 163 163 167 168 169 171 169 167 168 167 168 166 164 166 167 167 166 159 162 161 163 176 177 149 151 184 4 29 48 24 337 315 288 282 288 295 298 301 302 304 306
155 155 159 164 167 167 168 169 169 171 171 167 168 168 170 171 167 165 165 167 172 162 171 192 192 173 176 194 68 63 56 10 327 309 290 278 283 293 301 299 302 301 302
Height
1544 1545 1546 1546 1546 1547 1547 1547 1546 1546 1545 1544 1543 1542 1540 1539 1538 1538 1537 1537 1536 1536 1535 1535 1535 1534 1534 1534 1534 1534 1535 1536 1536 1537 1537 1537 1537 1536 1536 1536 1536 1535 1534
1543 1544 1545 1545 1546 1546 1546 1546 1545 1545 1544 1543 1542 1541 1540 1539 1538 1537 1537 1536 1536 1535 1535 1534 1534 1534 1533 1533 1533 1533 1533 1533 1534 1535 1535 1536 1535 1535 1535 1535 1535 1534 1533
1543 1543 1544 1545 1545 1545 1545 1545 1544 1544 1543 1543 1541 1540 1539 1539 1538 1537 1537 1536 1536 1535 1535 1534 1534 1533 1532 1532 1532 1532 1532 1533 1533 1533 1534 1534 1535 1535 1534 1534 1534 1533 1533
1541 1542 1543 1544 1544 1544 1544 1544 1544 1543 1543 1542 1541 1540 1540 1539 1538 1538 1537 1537 1536 1536 1535 1535 1534 1533 1533 1532 1532 1531 1531 1532 1532 1533 1533 1534 1534 1534 1535 1535 1534 1534 1534
1540 1542 1542 1543 1543 1544 1544 1543 1543 1543 1543 1542 1542 1541 1540 1540 1539 1539 1539 1538 1537 1537 1537 1536 1535 1534 1533 1533 1532 1532 1532 1532 1532 1532 1533 1534 1534 1535 1535 1535 1535 1535 1535
1539 1541 1542 1542 1543 1543 1543 1544 1544 1543 1543 1543 1542 1542 1541 1541 1540 1540 1540 1539 1539 1538 1538 1537 1537 1536 1535 1534 1533 1533 1533 1533 1533 1534 1534 1535 1535 1536 1536 1536 1536 1536 1536
1538 1540 1541 1542 1542 1543 1543 1544 1544 1544 1543 1543 1543 1543 1542 1542 1541 1541 1541 1541 1540 1540 1539 1539 1539 1538 1537 1537 1536 1535 1535 1535 1535 1535 1536 1536 1536 1536 1536 1537 1536 1537 1536
1537 1538 1540 1541 1541 1542 1543 1544 1544 1544 1544 1544 1544 1543 1543 1543 1543 1542 1542 1542 1542 1541 1541 1541 1540 1540 1539 1539 1538 1538 1537 1537 1537 1537 1537 1537 1537 1537 1538 1538 1538 1537 1537
1536 1537 1538 1540 1541 1542 1542 1543 1544 1544 1544 1545 1544 1544 1544 1544 1544 1544 1544 1544 1543 1543 1543 1543 1542 1542 1541 1541 1540 1540 1539 1539 1539 1539 1538 1538 1538 1538 1539 1539 1539 1539 1539
1535 1536 1537 1539 1540 1541 1542 1543 1544 1544 1545 1545 1545 1545 1545 1545 1545 1545 1545 1546 1545 1545 1545 1545 1544 1544 1543 1543 1542 1542 1541 1542 1542 1541 1541 1541 1541 1540 1540 1540 1540 1540 1540
1533 1535 1536 1538 1539 1540 1541 1542 1543 1545 1545 1545 1546 1546 1546 1546 1546 1546 1546 1547 1547 1547 1547 1547 1546 1546 1545 1545 1544 1544 1544 1544 1544 1544 1544 1543 1543 1542 1542 1541 1540 1541 1540
1532 1533 1535 1537 1538 1540 1541 1542 1544 1545 1545 1546 1546 1547 1547 1547 1547 1547 1547 1547 1548 1548 1548 1548 1548 1548 1547 1547 1546 1546 1546 1546 1547 1546 1546 1545 1545 1544 1543 1542 1541 1540 1540
1531 1532 1534 1536 1537 1539 1540 1542 1543 1544 1546 1546 1547 1548 1548 1548 1548 1548 1548 1548 1548 1548 1549 1549 1549 1549 1549 1549 1548 1548 1548 1549 1548 1548 1548 1547 1546 1545 1544 1543 1543 1542 1541
1530 1532 1533 1535 1536 1538 1540 1542 1543 1544 1545 1547 1547 1548 1548 1548 1549 1549 1549 1549 1549 1550 1550 1550 1550 1551 1551 1550 1550 1550 1550 1549 1549 1549 1549 1548 1547 1547 1546 1545 1545 1544 1543
1529 1531 1533 1535 1536 1537 1539 1541 1543 1544 1545 1546 1547 1547 1548 1548 1549 1549 1550 1550 1551 1551 1551 1552 1553 1553 1553 1553 1552 1551 1551 1551 1550 1550 1549 1549 1548 1547 1547 1546 1544 1544 1543
1528 1531 1532 1534 1536 1537 1538 1539 1541 1543 1544 1545 1546 1547 1547 1548 1548 1548 1549 1550 1550 1551 1553 1554 1554 1554 1554 1553 1553 1552 1552 1551 1551 1550 1550 1549 1548 1548 1547 1546 1545 1544 1543
1526 1529 1531 1533 1534 1536 1537 1539 1541 1543 1544 1545 1545 1546 1547 1547 1548 1548 1549 1550 1551 1552 1553 1554 1554 1554 1554 1554 1553 1553 1553 1552 1551 1551 1550 1549 1549 1548 1547 1546 1545 1544 1543
1525 1527 1529 1530 1532 1534 1536 1538 1540 1541 1543 1544 1545 1545 1546 1547 1548 1548 1550 1551 1552 1552 1553 1553 1553 1553 1553 1553 1553 1553 1553 1552 1552 1551 1550 1550 1549 1548 1547 1546 1545 1544 1543
1524 1526 1528 1529 1530 1533 1535 1537 1539 1541 1542 1543 1543 1544 1545 1546 1547 1548 1549 1551 1552 1552 1552 1553 1553 1553 1553 1553 1553 1553 1552 1552 1551 1551 1550 1549 1549 1548 1547 1546 1545 1543 1542
1522 1523 1525 1527 1529 1532 1534 1536 1538 1540 1541 1542 1542 1543 1544 1546 1547 1547 1548 1550 1551 1552 1552 1552 1552 1552 1552 1552 1552 1552 1552 1551 1551 1551 1550 1549 1548 1548 1547 1546 1545 1543 1542
1520 1522 1524 1526 1529 1531 1533 1535 1536 1538 1539 1541 1542 1542 1543 1545 1546 1547 1548 1549 1550 1550 1551 1551 1551 1551 1551 1551 1551 1551 1551 1551 1550 1550 1549 1548 1548 1547 1546 1545 1544 1543 1541
1519 1521 1523 1525 1527 1529 1531 1533 1535 1536 1538 1539 1540 1541 1542 1545 1546 1546 1547 1548 1548 1549 1549 1549 1550 1550 1550 1550 1550 1550 1550 1549 1549 1548 1548 1547 1547 1546 1545 1544 1543 1542 1540
1518 1520 1522 1524 1525 1527 1529 1531 1533 1534 1536 1537 1539 1540 1541 1543 1544 1545 1546 1546 1547 1547 1547 1548 1548 1548 1548 1548 1548 1548 1548 1548 1547 1547 1546 1546 1545 1545 1544 1542 1541 1540 1539
1516 1518 1520 1522 1524 1526 1528 1530 1531 1533 1534 1536 1537 1539 1540 1541 1542 1543 1544 1545 1545 1546 1546 1546 1547 1546 1546 1546 1546 1547 1546 1545 1545 1545 1544 1544 1543 1543 1542 1541 1539 1538 1537
1514 1517 1519 1521 1523 1525 1526 1528 1530 1532 1533 1535 1536 1537 1538 1540 1541 1542 1543 1543 1544 1544 1544 1545 1545 1545 1545 1545 1545 1544 1543 1542 1542 1542 1542 1542 1541 1540 1540 1539 1537 1536 1534
1513 1515 1518 1520 1521 1523 1525 1527 1529 1530 1532 1533 1535 1536 1537 1538 1539 1540 1540 1541 1542 1542 1543 1543 1543 1544 1543 1543 1543 1542 1541 1540 1540 1539 1539 1539 1539 1538 1537 1536 1535 1533 1532